Time,TemperatureF,DewpointF,PressureIn,WindDirection,WindDirectionDegrees,WindSpeedMPH,WindSpeedGustMPH,Humidity,HourlyPrecipIn,Conditions,Clouds,dailyrainin,SoftwareType,DateUTC
2013-11-25 00:21:00,45.0,41.0,30.23,North,0,0.0,3.0,85,0.00,,,0.00,,2013-11-25 08:21:00,
2013-11-25 00:42:00,44.0,40.0,30.23,North,0,0.0,0.0,85,0.00,,,0.00,,2013-11-25 08:42:00,
2013-11-25 00:52:00,44.0,40.0,30.23,North,0,0.0,0.0,86,0.00,,,0.00,,2013-11-25 08:52:00,
2013-11-25 01:53:00,44.0,40.0,30.24,South,187,2.0,4.0,85,0.00,,,0.00,,2013-11-25 09:53:00,
2013-11-25 02:53:00,43.0,40.0,30.25,SW,222,5.0,8.0,88,0.00,,,0.00,,2013-11-25 10:53:00,
2013-11-25 03:22:00,45.0,40.0,30.25,SW,228,5.0,7.0,84,0.00,,,0.00,,2013-11-25 11:22:00,
2013-11-25 03:52:00,46.0,41.0,30.26,SW,232,6.0,8.0,84,0.00,,,0.00,,2013-11-25 11:52:00,
2013-11-25 04:21:00,45.0,41.0,30.27,WSW,256,2.0,6.0,85,0.00,,,0.00,,2013-11-25 12:21:00,
2013-11-25 04:42:00,45.0,41.0,30.27,SW,229,1.0,4.0,86,0.00,,,0.00,,2013-11-25 12:42:00,
2013-11-25 04:52:00,44.0,41.0,30.27,North,0,0.0,1.0,88,0.00,,,0.00,,2013-11-25 12:52:00,
2013-11-25 05:11:00,44.0,41.0,30.27,South,178,2.0,4.0,88,0.00,,,0.00,,2013-11-25 13:11:00,
2013-11-25 05:21:00,44.0,40.0,30.27,North,0,0.0,3.0,85,0.00,,,0.00,,2013-11-25 13:21:00,
2013-11-25 05:52:00,42.0,39.0,30.28,North,0,0.0,0.0,89,0.00,,,0.00,,2013-11-25 13:52:00,
2013-11-25 06:21:00,41.0,38.0,30.28,South,175,1.0,3.0,88,0.00,,,0.00,,2013-11-25 14:21:00,
2013-11-25 06:42:00,40.0,37.0,30.29,North,0,0.0,2.0,90,0.00,,,0.00,,2013-11-25 14:42:00,
2013-11-25 06:52:00,40.0,37.0,30.29,North,0,0.0,1.0,90,0.00,,,0.00,,2013-11-25 14:52:00,
2013-11-25 07:54:00,43.0,40.0,30.29,North,0,0.0,3.0,89,0.00,,,0.00,,2013-11-25 15:54:00,
2013-11-25 08:23:00,47.0,43.0,30.30,North,0,0.0,0.0,86,0.00,,,0.00,,2013-11-25 16:23:00,
2013-11-25 08:52:00,51.0,45.0,30.31,North,0,0.0,2.0,79,0.00,,,0.00,,2013-11-25 16:52:00,
2013-11-25 09:22:00,53.0,44.0,30.32,North,0,0.0,1.0,72,0.00,,,0.00,,2013-11-25 17:22:00,
2013-11-25 09:43:00,54.0,45.0,30.32,North,0,0.0,0.0,71,0.00,,,0.00,,2013-11-25 17:43:00,
2013-11-25 09:52:00,55.0,45.0,30.32,NW,321,1.0,4.0,69,0.00,,,0.00,,2013-11-25 17:52:00,
2013-11-25 10:21:00,56.0,46.0,30.32,North,0,0.0,4.0,69,0.00,,,0.00,,2013-11-25 18:21:00,
2013-11-25 10:42:00,56.0,45.0,30.32,NNW,330,2.0,6.0,67,0.00,,,0.00,,2013-11-25 18:42:00,
2013-11-25 10:52:00,57.0,46.0,30.32,North,0,0.0,6.0,66,0.00,,,0.00,,2013-11-25 18:52:00,
2013-11-25 11:21:00,58.0,45.0,30.31,North,0,0.0,4.0,63,0.00,,,0.00,,2013-11-25 19:21:00,
2013-11-25 11:52:00,60.0,47.0,30.30,ENE,68,1.0,3.0,61,0.00,,,0.00,,2013-11-25 19:52:00,
2013-11-25 12:21:00,60.0,46.0,30.28,East,100,2.0,7.0,59,0.00,,,0.00,,2013-11-25 20:21:00,
2013-11-25 12:52:00,62.0,46.0,30.27,North,0,0.0,3.0,55,0.00,,,0.00,,2013-11-25 20:52:00,
2013-11-25 13:22:00,63.0,45.0,30.26,North,2,2.0,4.0,52,0.00,,,0.00,,2013-11-25 21:22:00,
2013-11-25 13:43:00,63.0,45.0,30.25,North,1,1.0,5.0,52,0.00,,,0.00,,2013-11-25 21:43:00,
2013-11-25 13:53:00,63.0,45.0,30.25,NNE,13,2.0,6.0,51,0.00,,,0.00,,2013-11-25 21:53:00,
2013-11-25 14:23:00,64.0,45.0,30.24,NNW,329,1.0,5.0,51,0.00,,,0.00,,2013-11-25 22:23:00,
2013-11-25 14:53:00,64.0,45.0,30.25,North,0,0.0,6.0,50,0.00,,,0.00,,2013-11-25 22:53:00,
2013-11-25 15:22:00,64.0,45.0,30.24,NNW,340,2.0,5.0,50,0.00,,,0.00,,2013-11-25 23:22:00,
2013-11-25 15:52:00,63.0,45.0,30.24,WNW,284,3.0,4.0,51,0.00,,,0.00,,2013-11-25 23:52:00,
2013-11-25 16:21:00,63.0,45.0,30.24,North,0,0.0,2.0,51,0.00,,,0.00,,2013-11-26 00:21:00,
2013-11-25 16:42:00,63.0,45.0,30.24,North,0,0.0,1.0,52,0.00,,,0.00,,2013-11-26 00:42:00,
2013-11-25 16:52:00,62.0,45.0,30.25,North,0,0.0,1.0,53,0.00,,,0.00,,2013-11-26 00:52:00,
2013-11-25 17:21:00,59.0,46.0,30.25,North,0,0.0,0.0,62,0.00,,,0.00,,2013-11-26 01:21:00,
2013-11-25 18:21:00,52.0,45.0,30.27,South,181,1.0,5.0,77,0.00,,,0.00,,2013-11-26 02:21:00,
2013-11-25 18:52:00,51.0,44.0,30.27,SSW,192,1.0,5.0,78,0.00,,,0.00,,2013-11-26 02:52:00,
2013-11-25 19:22:00,50.0,44.0,30.27,North,0,0.0,4.0,80,0.00,,,0.00,,2013-11-26 03:22:00,
2013-11-25 19:43:00,50.0,44.0,30.27,SSE,168,2.0,4.0,79,0.00,,,0.00,,2013-11-26 03:43:00,
2013-11-25 19:53:00,50.0,44.0,30.28,South,182,2.0,5.0,80,0.00,,,0.00,,2013-11-26 03:53:00,
2013-11-25 20:12:00,49.0,43.0,30.28,South,179,1.0,3.0,81,0.00,,,0.00,,2013-11-26 04:12:00,
2013-11-25 20:23:00,49.0,43.0,30.27,North,0,0.0,4.0,81,0.00,,,0.00,,2013-11-26 04:23:00,
2013-11-25 20:53:00,49.0,43.0,30.27,South,179,1.0,2.0,81,0.00,,,0.00,,2013-11-26 04:53:00,
2013-11-25 21:22:00,48.0,43.0,30.27,SSW,203,4.0,6.0,83,0.00,,,0.00,,2013-11-26 05:22:00,
2013-11-25 21:42:00,49.0,43.0,30.27,SSW,199,1.0,7.0,81,0.00,,,0.00,,2013-11-26 05:42:00,
2013-11-25 21:53:00,49.0,43.0,30.27,SSW,202,2.0,3.0,79,0.00,,,0.00,,2013-11-26 05:53:00,
2013-11-25 22:22:00,48.0,43.0,30.27,North,0,0.0,2.0,83,0.00,,,0.00,,2013-11-26 06:22:00,
2013-11-25 22:52:00,46.0,42.0,30.27,North,0,0.0,3.0,85,0.00,,,0.00,,2013-11-26 06:52:00,
2013-11-25 23:21:00,46.0,42.0,30.26,North,0,0.0,2.0,86,0.00,,,0.00,,2013-11-26 07:21:00,
2013-11-25 23:52:00,45.0,41.0,30.26,North,0,0.0,1.0,87,0.00,,,0.00,,2013-11-26 07:52:00,